Location: Arroyo Grande
(40.2671°N, 4.2512°W)
Time: 19:46:46
(UTC+00:00)

IRIDIUM 103 - Pass Details

Date: 03 February 2023
Orbit: 776 x 779 km, 86.4° (Epoch: 21 March)

Event Time Altitude Azimuth Distance (km) Brightness Sun altitude
Rises 18:46:56 0° 2° (N) 3,271 7.4 -13.5°
Reaches altitude 10° 18:49:21 10° 7° (N) 2,339 6.6 -14.0°
Maximum altitude 18:54:28 53° 84° (E) 951 4.4 -15.0°
Drops below altitude 10° 18:59:32 10° 161° (SSE) 2,320 6.7 -15.9°
Sets 19:01:56 0° 166° (SSE) 3,243 7.5 -16.4°
